1496055600.12,30422,20.5,74324.0,25.91,-2.95,-4.77,0,*4F
1496055601.39,30423,20.5,74324.0,25.87,-3.63,-5.69,0,*4F
1496055602.59,30424,20.5,74322.8,25.79,-1.59,-3.39,0,*41
1496055603.83,30425,20.5,74322.5,25.79,-1.13,-3.03,0,*47
1496055605.05,30426,20.5,74324.3,25.77,-1.13,-3.03,0,*4A
1496055606.27,30427,20.5,74326.3,25.73,-1.87,-3.87,0,*4E
1496055607.47,30428,20.5,74324.3,25.73,-1.59,-3.59,0,*41
1496055608.69,30429,20.5,74326.5,25.71,-1.35,-3.39,0,*4E
1496055609.9,30430,20.5,74322.5,25.69,-1.75,-3.79,0,*4F
1496055611.15,30431,20.5,74322.5,25.65,-1.47,-3.47,0,*4E
1496055612.39,30432,20.5,74322.3,25.65,-1.33,-3.43,0,*4A
1496055613.61,30433,20.5,74322.3,25.59,-1.47,-3.35,0,*46
1496055614.85,30434,20.5,74324.8,25.57,-0.77,-2.75,0,*78
1496055616.06,30435,20.5,74320.0,25.55,-0.61,-2.71,0,*78
1496055617.27,30436,20.5,74322.8,25.55,-0.85,-2.83,0,*7C
1496055618.5,30437,20.5,74324.8,25.53,-0.57,-2.59,0,*73
1496055619.71,30438,20.5,74320.8,25.51,-1.51,-3.63,0,*41
1496055620.91,30439,20.5,74324.3,25.51,-1.51,-3.71,0,*43
1496055622.11,30440,20.5,74322.3,25.47,-1.17,-3.23,0,*4F
1496055623.32,30441,20.5,74320.5,25.45,-0.73,-2.83,0,*74
1496055624.54,30442,20.5,74320.3,25.45,-0.41,-2.35,0,*7B
1496055625.75,30443,20.5,74322.8,25.41,-2.27,-4.45,0,*4D
1496055627.0,30444,20.5,74324.0,25.41,-2.03,-4.13,0,*4F
1496055628.21,30445,20.5,74320.0,25.35,-1.67,-3.83,0,*42
1496055629.4,30446,20.5,74320.0,25.33,-2.19,-4.41,0,*44
1496055630.68,30447,20.5,74320.8,25.27,-2.71,-5.03,0,*49
1496055631.89,30448,20.5,74324.0,25.25,-0.89,-3.19,0,*7C
1496055633.08,30449,20.5,74326.0,25.25,-0.69,-3.03,0,*78
1496055634.31,30450,20.5,74322.3,25.23,-0.89,-3.15,0,*7F
1496055635.55,30451,20.5,74324.8,25.21,-1.39,-3.51,0,*46
1496055636.75,30452,20.5,74322.8,25.21,-0.89,-3.15,0,*7F
1496055637.96,30453,20.5,74322.3,25.19,-1.63,-4.05,0,*46
1496055639.2,30454,20.5,74322.3,25.15,-1.67,-4.01,0,*4D
1496055640.42,30455,20.5,74322.8,25.11,-1.79,-4.29,0,*4D
1496055641.66,30456,20.5,74322.5,25.11,-1.51,-4.01,0,*4E
1496055642.9,30457,20.5,74320.0,25.07,-1.47,-3.75,0,*4B
1496055644.13,30458,20.5,74318.0,25.03,-0.85,-3.23,0,*7C
1496055645.35,30459,20.5,74322.5,25.05,-1.35,-3.91,0,*48
1496055646.6,30460,20.5,74320.5,25.03,-1.39,-4.05,0,*42
1496055647.8,30461,20.5,74320.8,25.01,-0.89,-3.39,0,*73
1496055649.05,30462,20.5,74320.0,25.01,-2.07,-4.73,0,*4D
1496055650.26,30463,20.5,74326.0,24.99,-1.59,-4.13,0,*42
1496055651.48,30464,20.5,74322.8,24.93,-1.87,-4.65,0,*4D
1496055652.68,30465,20.5,74320.3,24.91,-0.53,-3.15,0,*76
1496055653.92,30466,20.5,74322.8,24.91,-1.43,-4.21,0,*45
1496055655.14,30467,20.5,74326.3,24.89,-2.07,-4.99,0,*4D
1496055656.36,30468,20.5,74320.5,24.85,-2.51,-5.43,0,*4B
1496055657.63,30469,20.5,74322.0,24.83,-1.99,-4.81,0,*44
1496055658.85,30470,20.5,74320.3,24.77,-1.35,-4.13,0,*4A
1496055660.1,30471,20.5,74322.0,24.77,-1.95,-5.03,0,*41
1496055661.32,30472,20.5,74320.8,24.77,-1.43,-4.29,0,*40
1496055662.5,30473,20.5,74320.5,24.75,-0.53,-3.31,0,*7D
1496055663.7,30474,20.5,74322.8,24.73,-0.07,-2.79,0,*40
1496055664.95,30475,20.5,74320.0,24.69,-0.85,-3.71,0,*79
1496055666.16,30476,20.5,74322.3,24.67,-1.63,-4.73,0,*48
1496055667.38,30477,20.5,74324.8,24.65,-1.63,-4.57,0,*4D
1496055668.61,30478,20.5,74322.5,24.65,-0.77,-3.67,0,*72
1496055669.78,30479,20.5,74322.3,24.63,0.01,-2.79,0,*67
1496055670.96,30480,20.5,74322.5,24.63,-0.19,-3.11,0,*7A
1496055672.17,30481,20.5,74320.8,24.61,-0.33,-3.31,0,*73
1496055673.39,30482,20.5,74326.8,24.61,-0.77,-3.91,0,*7A
1496055674.61,30483,20.5,74320.3,24.59,-1.47,-4.65,0,*4E
1496055675.85,30484,20.5,74322.3,24.57,-1.13,-4.33,0,*45
1496055677.07,30485,20.5,74322.8,24.55,-0.89,-4.05,0,*71
1496055678.28,30486,20.5,74322.8,24.55,-0.89,-4.17,0,*71
1496055679.49,30487,20.5,74322.3,24.51,-0.85,-4.09,0,*77
1496055680.71,30488,20.5,74322.0,24.51,-0.85,-4.21,0,*72
1496055681.91,30489,20.5,74322.0,24.51,-0.33,-3.59,0,*76
1496055683.13,30490,20.5,74322.5,24.51,0.87,-2.31,0,*53
1496055684.36,30491,20.5,74320.0,24.51,0.41,-2.75,0,*58
1496055685.55,30492,20.5,74320.5,24.51,0.97,-2.23,0,*53
1496055686.75,30493,20.5,74322.0,24.47,0.25,-3.11,0,*5C
1496055688.01,30494,20.5,74326.3,24.45,-0.27,-3.67,0,*77
1496055689.24,30495,20.5,74324.3,24.45,-0.85,-4.17,0,*7E
1496055690.47,30496,20.5,74320.3,24.45,-0.03,-3.47,0,*41
1496055691.67,30497,20.5,74322.8,24.45,0.43,-2.99,0,*5B
1496055692.89,30498,20.5,74320.0,24.43,0.33,-3.07,0,*53
1496055694.14,30499,20.5,74326.0,24.43,-0.27,-3.71,0,*7B
1496055695.36,30500,20.5,74320.5,24.41,0.63,-2.75,0,*50
1496055696.59,30501,20.5,74322.3,24.43,-0.07,-3.51,0,*4B
1496055697.78,30502,20.5,74324.3,24.41,0.29,-3.19,0,*57
1496055699.04,30503,20.5,74322.3,24.39,0.91,-2.67,0,*52
1496055700.28,30504,20.5,74318.5,24.39,1.21,-2.35,0,*68
1496055701.55,30505,20.5,74324.8,24.39,1.13,-2.47,0,*6D
1496055702.79,30506,20.5,74320.0,24.41,1.09,-2.47,0,*6A
1496055703.99,30507,20.56,74326.3,24.41,0.67,-3.11,0,*50
1496055705.21,30508,20.5,74320.8,24.41,0.17,-3.59,0,*54
1496055706.43,30509,20.5,74322.0,24.41,0.17,-3.59,0,*55
1496055707.66,30510,20.5,74322.3,24.39,2.55,-1.17,0,*6E
1496055708.89,30511,20.5,74320.5,24.39,3.03,-0.69,0,*55
1496055710.09,30512,20.5,74324.3,24.43,3.29,-0.29,0,*57
1496055711.32,30513,20.5,74326.3,24.45,3.93,0.25,0,*70
1496055712.58,30514,20.5,74322.0,24.53,4.71,0.91,0,*74
1496055713.84,30515,20.5,74322.0,24.57,4.63,1.09,0,*42
1496055715.04,30516,20.5,74322.3,24.59,3.75,-0.07,0,*6D
1496055716.28,30517,20.5,74320.5,24.61,3.45,-0.45,0,*52
1496055717.5,30518,20.5,74324.3,24.65,4.41,0.71,0,*70
1496055718.72,30519,20.5,74322.8,24.69,5.07,1.47,0,*4A
1496055719.91,30520,20.5,74320.8,24.75,5.55,1.83,0,*42
1496055721.13,30521,20.5,74322.5,24.79,5.29,1.59,0,*43
1496055722.33,30522,20.5,74322.0,24.85,5.59,1.97,0,*46
1496055723.58,30523,20.5,74320.8,24.87,6.47,2.85,0,*49
1496055724.77,30524,20.5,74320.3,24.97,6.29,2.65,0,*49
1496055725.97,30525,20.5,74320.0,25.01,5.63,1.97,0,*45
1496055727.21,30526,20.5,74322.8,25.05,6.51,2.77,0,*4D
1496055728.42,30527,20.5,74320.0,25.09,6.61,2.95,0,*4F
1496055729.66,30528,20.5,74324.5,25.19,6.03,2.25,0,*4E
1496055730.89,30529,20.5,74320.8,25.23,5.33,1.55,0,*42
1496055732.11,30530,20.56,74324.0,25.27,5.07,1.29,0,*42
1496055733.35,30531,20.5,74324.5,25.29,6.47,2.73,0,*46
1496055734.6,30532,20.5,74322.5,25.35,5.77,2.09,0,*45
1496055735.83,30533,20.5,74320.5,25.41,6.61,2.95,0,*46
1496055737.06,30534,20.5,74320.5,25.45,5.07,1.29,0,*42
1496055738.28,30535,20.5,74322.5,25.49,5.59,1.93,0,*45
1496055739.51,30536,20.5,74324.0,25.53,7.27,3.63,0,*4B
1496055740.74,30537,20.5,74326.0,25.59,7.65,4.05,0,*41
1496055741.94,30538,20.5,74320.3,25.67,6.79,3.07,0,*4A
1496055743.18,30539,20.5,74322.3,25.71,6.17,2.51,0,*46
1496055744.44,30540,20.5,74322.8,25.75,6.73,3.11,0,*4B
1496055745.64,30541,20.5,74324.5,25.81,6.17,2.35,0,*44
1496055746.87,30542,20.5,74318.8,25.83,5.51,1.75,0,*43
1496055748.06,30543,20.5,74320.3,25.89,5.49,1.71,0,*45
1496055749.22,30544,20.5,74322.0,25.93,5.15,1.41,0,*43
1496055750.43,30545,20.5,74320.5,25.93,3.93,0.21,0,*7D
1496055751.63,30546,20.5,74322.8,25.95,3.59,-0.19,0,*58
1496055752.84,30547,20.5,74324.5,25.97,3.15,-0.73,0,*5F
1496055754.1,30548,20.5,74322.5,25.95,2.55,-1.35,0,*64
1496055755.33,30549,20.5,74320.3,25.95,2.25,-1.63,0,*61
1496055756.51,30550,20.5,74320.3,25.93,1.79,-2.15,0,*67
1496055757.71,30551,20.5,74320.3,25.93,0.21,-3.79,0,*51
1496055758.99,30552,20.5,74322.8,25.87,-1.05,-5.19,0,*4D
1496055760.18,30553,20.56,74322.8,25.81,-1.33,-5.39,0,*4D
1496055761.39,30554,20.5,74322.0,25.79,-0.29,-4.21,0,*7F
1496055762.6,30555,20.5,74322.3,25.77,0.75,-3.03,0,*53
1496055763.84,30556,20.5,74322.8,25.75,1.29,-2.39,0,*62
1496055765.09,30557,20.5,74322.0,25.73,1.21,-2.47,0,*64
1496055766.31,30558,20.5,74320.3,25.73,0.25,-3.47,0,*5F
1496055767.52,30559,20.56,74322.8,25.73,1.13,-2.43,0,*6F
1496055768.79,30560,20.5,74322.0,25.69,1.17,-2.47,0,*6E
1496055770.01,30561,20.5,74320.0,25.69,0.25,-3.75,0,*5F
1496055771.25,30562,20.56,74326.8,25.65,-1.55,-5.31,0,*4D
1496055772.48,30563,20.5,74322.5,25.59,-1.83,-5.55,0,*4A
1496055773.75,30564,20.56,74322.8,25.57,-1.87,-5.65,0,*44
1496055774.99,30565,20.5,74322.8,25.53,-1.21,-4.85,0,*42
1496055776.18,30566,20.56,74322.5,25.51,-0.53,-4.13,0,*78
1496055777.38,30567,20.5,74322.3,25.47,-0.81,-4.21,0,*70
1496055778.58,30568,20.5,74320.8,25.49,0.43,-2.87,0,*58
1496055779.81,30569,20.5,74320.8,25.49,0.55,-2.87,0,*5E
1496055781.02,30570,20.5,74322.0,25.43,0.29,-2.99,0,*58
1496055782.27,30571,20.56,74322.0,25.43,1.09,-1.99,0,*69
1496055783.5,30572,20.56,74324.3,25.43,0.71,-2.59,0,*5B
1496055784.71,30573,20.5,74322.5,25.37,-0.11,-3.43,0,*78
1496055785.89,30574,20.56,74324.3,25.37,-0.65,-3.91,0,*73
1496055787.14,30575,20.5,74322.5,25.33,-1.87,-5.31,0,*47
1496055788.37,30576,20.56,74324.0,25.31,-0.41,-3.63,0,*7C
1496055789.63,30577,20.5,74322.0,25.31,0.47,-2.51,0,*56
1496055790.87,30578,20.56,74326.8,25.29,1.17,-1.87,0,*6C
1496055792.1,30579,20.5,74320.3,25.29,1.89,-1.05,0,*60
1496055793.31,30580,20.56,74326.5,25.29,2.17,-0.65,0,*55
1496055794.52,30581,20.56,74326.0,25.29,1.59,-1.29,0,*64
1496055795.72,30582,20.56,74320.8,25.29,0.21,-2.87,0,*5E
1496055796.9,30583,20.56,74326.3,25.29,-0.03,-2.99,0,*4D
1496055798.16,30584,20.56,74324.8,25.27,0.17,-2.71,0,*5A
1496055799.37,30585,20.56,74326.5,25.25,0.47,-2.31,0,*58
1496055800.58,30586,20.56,74322.8,25.23,0.97,-1.79,0,*5F
1496055801.77,30587,20.56,74322.8,25.21,1.05,-1.75,0,*6A
1496055802.97,30588,20.56,74324.3,25.21,0.59,-2.23,0,*5D
1496055804.14,30589,20.56,74322.0,25.21,0.43,-2.35,0,*50
1496055805.4,30590,20.56,74326.0,25.19,0.63,-2.07,0,*50
1496055806.65,30591,20.56,74320.3,25.15,0.13,-2.59,0,*51
1496055807.91,30592,20.56,74324.5,25.15,0.91,-1.83,0,*5C
1496055809.16,30593,20.56,74324.8,25.15,0.75,-1.91,0,*54
1496055810.44,30594,20.56,74322.3,25.11,1.21,-1.39,0,*65
1496055811.67,30595,20.56,74320.3,25.13,1.47,-1.05,0,*69
1496055812.89,30596,20.5,74320.8,25.13,2.17,-0.41,0,*5D
1496055814.07,30597,20.56,74324.8,25.13,1.83,-0.77,0,*57
1496055815.28,30598,20.56,74322.3,25.13,1.71,-0.65,0,*56
1496055816.49,30599,20.56,74322.5,25.13,1.71,-0.73,0,*50
1496055817.7,30600,20.56,74320.3,25.11,1.05,-1.51,0,*63
1496055818.96,30601,20.56,74320.0,25.11,1.55,-0.97,0,*5C
1496055820.2,30602,20.56,74322.3,25.11,1.17,-1.29,0,*6D
1496055821.46,30603,20.56,74322.3,25.11,2.05,-0.27,0,*53
1496055822.67,30604,20.56,74320.5,25.09,1.43,-1.29,0,*63
1496055823.92,30605,20.56,74322.5,25.07,0.51,-1.99,0,*55
1496055825.16,30606,20.56,74322.3,25.07,0.91,-1.55,0,*5A
1496055826.39,30607,20.56,74324.0,25.03,-0.15,-2.59,0,*71
1496055827.6,30608,20.56,74320.3,25.01,0.05,-2.51,0,*68
1496055828.85,30609,20.56,74320.8,24.99,0.51,-2.07,0,*5B
1496055830.04,30610,20.56,74320.8,24.93,-0.61,-3.35,0,*77
1496055831.23,30611,20.56,74324.0,24.93,-0.73,-3.39,0,*79
1496055832.45,30612,20.56,74322.8,24.89,-0.93,-3.55,0,*75
1496055833.67,30613,20.56,74324.5,24.85,-0.11,-2.71,0,*75
1496055834.89,30614,20.56,74322.3,24.87,0.13,-2.43,0,*5E
1496055836.09,30615,20.56,74324.3,24.81,0.63,-1.79,0,*54
1496055837.32,30616,20.56,74324.8,24.81,-0.93,-3.67,0,*78
1496055838.54,30617,20.56,74320.8,24.77,-1.47,-4.17,0,*48
1496055839.76,30618,20.56,74322.3,24.77,-1.01,-3.75,0,*46
1496055840.94,30619,20.56,74322.3,24.67,-0.49,-2.95,0,*74
1496055842.13,30620,20.56,74322.5,24.67,-0.37,-2.95,0,*77
1496055843.31,30621,20.56,74322.3,24.63,-0.65,-3.23,0,*79
1496055844.53,30622,20.56,74322.0,24.63,-0.19,-2.63,0,*74
1496055845.73,30623,20.56,74320.3,24.59,0.05,-2.47,0,*6A
1496055846.92,30624,20.56,74320.8,24.55,-0.77,-3.23,0,*7A
1496055848.1,30625,20.56,74322.0,24.55,-0.73,-3.23,0,*7F
1496055849.34,30626,20.56,74322.8,24.51,-0.27,-2.75,0,*7B
1496055850.58,30627,20.56,74322.0,24.51,0.47,-2.07,0,*54
1496055851.78,30628,20.56,74322.5,24.47,0.43,-2.11,0,*5F
1496055853.01,30629,20.56,74322.3,24.45,0.13,-2.35,0,*5F
1496055854.24,30630,20.56,74322.3,24.43,0.91,-1.63,0,*5B
1496055855.49,30631,20.56,74324.8,24.43,0.47,-1.91,0,*5C
1496055856.7,30632,20.56,74320.5,24.41,0.91,-1.71,0,*58
1496055857.89,30633,20.56,74320.8,24.37,-0.37,-2.99,0,*7C
1496055859.12,30634,20.56,74322.5,24.37,-0.85,-3.47,0,*70
1496055860.34,30635,20.56,74324.8,24.33,-1.09,-3.55,0,*43
1496055861.52,30636,20.56,74324.0,24.29,-0.61,-3.23,0,*75
1496055862.7,30637,20.56,74322.5,24.29,-0.65,-3.35,0,*77
1496055863.92,30638,20.56,74324.0,24.23,-0.41,-2.95,0,*7F
1496055865.15,30639,20.56,74322.5,24.19,0.13,-2.35,0,*57
1496055866.36,30640,20.56,74320.8,24.17,-0.07,-2.63,0,*4C
1496055867.56,30641,20.56,74320.5,24.17,0.67,-1.79,0,*5E
1496055868.8,30642,20.56,74324.8,24.15,0.67,-1.95,0,*5D
1496055870.01,30643,20.56,74322.8,24.15,-0.53,-3.03,0,*7B
1496055871.2,30644,20.56,74326.5,24.11,-0.45,-2.95,0,*71
1496055872.41,30645,20.56,74324.0,24.07,-0.73,-3.43,0,*78
1496055873.6,30646,20.56,74322.5,24.07,-0.73,-3.31,0,*7E
1496055874.83,30647,20.56,74324.0,24.01,0.37,-2.31,0,*55
1496055876.07,30648,20.56,74322.8,24.01,-0.11,-2.75,0,*73
1496055877.31,30649,20.56,74324.3,23.97,0.33,-2.23,0,*54
1496055878.54,30650,20.56,74320.5,23.97,-1.17,-3.79,0,*48
1496055879.79,30651,20.56,74322.3,23.93,-0.93,-3.51,0,*7A
1496055881.05,30652,20.56,74322.5,23.89,0.55,-2.03,0,*53
1496055882.27,30653,20.56,74322.5,23.89,-0.15,-2.87,0,*77
1496055883.47,30654,20.56,74324.8,23.85,-0.57,-3.23,0,*75
1496055884.68,30655,20.56,74320.0,23.87,0.71,-1.79,0,*52
1496055885.88,30656,20.56,74324.8,23.85,1.83,-0.61,0,*57
1496055887.1,30657,20.56,74326.3,23.85,0.97,-1.55,0,*54
1496055888.28,30658,20.56,74324.0,23.83,0.97,-1.59,0,*51
1496055889.51,30659,20.56,74326.5,23.79,1.09,-1.59,0,*63
1496055890.77,30660,20.56,74320.3,23.79,1.43,-1.01,0,*6A
1496055892.02,30661,20.56,74324.3,23.79,0.71,-1.87,0,*55
1496055893.24,30662,20.56,74322.0,23.77,0.67,-1.87,0,*5F
1496055894.49,30663,20.56,74320.5,23.75,0.55,-1.95,0,*5E
1496055895.73,30664,20.56,74320.5,23.75,0.63,-1.95,0,*5C
1496055896.94,30665,20.56,74320.5,23.71,-0.45,-3.11,0,*7E
1496055898.13,30666,20.56,74322.3,23.69,-0.81,-3.39,0,*76
1496055899.33,30667,20.56,74326.3,23.67,-0.33,-2.91,0,*73
1496055900.58,30668,20.56,74324.0,23.67,0.51,-1.95,0,*52
1496055901.84,30669,20.56,74320.5,23.63,1.09,-1.39,0,*6D
1496055903.05,30670,20.56,74322.5,23.61,0.09,-2.63,0,*6A
1496055904.23,30671,20.56,74322.8,23.61,-0.29,-3.07,0,*77
1496055905.43,30672,20.56,74320.8,23.57,-0.81,-3.47,0,*77
1496055906.65,30673,20.56,74320.5,23.53,-0.27,-2.99,0,*7C
1496055907.84,30674,20.56,74322.8,23.53,-1.33,-4.17,0,*4F
1496055909.02,30675,20.56,74320.8,23.49,-0.61,-3.39,0,*78
1496055910.2,30676,20.56,74322.0,23.47,-0.07,-2.79,0,*40
1496055911.45,30677,20.56,74322.3,23.45,-0.85,-3.63,0,*73
1496055912.65,30678,20.56,74322.8,23.43,0.37,-2.35,0,*5C
1496055913.86,30679,20.56,74320.0,23.41,-0.19,-2.99,0,*78
1496055915.08,30680,20.56,74324.3,23.39,1.55,-1.21,0,*65
1496055916.31,30681,20.56,74320.5,23.39,0.95,-1.91,0,*52
1496055917.59,30682,20.56,74326.3,23.37,1.21,-1.35,0,*6F
1496055918.81,30683,20.56,74318.5,23.39,1.17,-1.55,0,*63
1496055919.98,30684,20.56,74320.0,23.39,0.43,-2.31,0,*55
1496055921.23,30685,20.56,74320.5,23.37,1.41,-1.35,0,*6E
1496055922.46,30686,20.56,74324.0,23.33,1.79,-1.05,0,*61
1496055923.71,30687,20.56,74320.5,23.33,1.89,-0.97,0,*55
1496055924.96,30688,20.56,74322.3,23.33,1.89,-0.97,0,*5A
1496055926.21,30689,20.56,74320.0,23.33,2.13,-0.85,0,*58
1496055927.45,30690,20.56,74320.5,23.37,1.71,-1.25,0,*68
1496055928.67,30691,20.56,74322.3,23.37,2.31,-0.57,0,*5A
1496055929.91,30692,20.56,74322.8,23.37,2.43,-0.49,0,*53
1496055931.12,30693,20.56,74322.0,23.37,2.35,-0.81,0,*57
1496055932.33,30694,20.56,74322.8,23.33,1.79,-1.29,0,*6C
1496055933.57,30695,20.56,74320.5,23.33,1.47,-1.63,0,*6E
1496055934.78,30696,20.56,74320.3,23.33,1.05,-2.23,0,*6C
1496055936.02,30697,20.56,74324.0,23.33,1.83,-1.35,0,*67
1496055937.23,30698,20.56,74322.5,23.31,1.89,-1.29,0,*6D
1496055938.45,30699,20.56,74320.5,23.31,1.47,-1.79,0,*6B
1496055939.7,30700,20.56,74322.0,23.31,1.37,-2.03,0,*63
1496055940.91,30701,20.56,74322.5,23.31,0.47,-3.03,0,*55
1496055942.12,30702,20.56,74322.8,23.27,1.01,-2.55,0,*60
1496055943.39,30703,20.56,74322.3,23.25,1.51,-1.99,0,*65
1496055944.63,30704,20.56,74324.0,23.25,1.51,-2.31,0,*63
1496055945.84,30705,20.56,74324.0,23.23,1.83,-1.83,0,*61
1496055947.11,30706,20.56,74326.8,23.25,2.25,-1.47,0,*63
1496055948.32,30707,20.56,74326.0,23.23,1.83,-2.03,0,*68
1496055949.56,30708,20.56,74324.0,23.23,1.47,-2.47,0,*6F
1496055950.78,30709,20.56,74322.0,23.23,1.25,-2.87,0,*66
1496055952.0,30710,20.56,74322.8,23.19,1.17,-2.95,0,*65
1496055953.22,30711,20.56,74326.0,23.19,1.41,-2.75,0,*69
1496055954.42,30712,20.56,74324.8,23.17,0.97,-3.23,0,*5C
1496055955.68,30713,20.56,74324.5,23.15,1.71,-2.59,0,*6A
1496055956.95,30714,20.56,74326.8,23.15,1.71,-2.63,0,*64
1496055958.2,30715,20.56,74322.5,23.15,0.59,-4.01,0,*5C
1496055959.42,30716,20.56,74322.8,23.11,0.71,-3.83,0,*5C
1496055960.64,30717,20.56,74326.3,23.09,1.21,-3.31,0,*69
1496055961.82,30718,20.56,74320.5,23.09,1.41,-3.27,0,*67
1496055963.06,30719,20.56,74322.3,23.07,2.21,-2.31,0,*6B
1496055964.27,30720,20.56,74324.0,23.07,2.35,-2.31,0,*64
1496055965.51,30721,20.56,74326.0,23.07,1.25,-3.75,0,*66
1496055966.72,30722,20.56,74322.3,23.05,0.87,-4.05,0,*5E
1496055967.93,30723,20.56,74320.3,23.03,1.01,-4.05,0,*66
1496055969.13,30724,20.56,74320.5,23.01,0.83,-4.33,0,*5D
1496055970.34,30725,20.56,74324.5,23.01,1.67,-3.27,0,*65
1496055971.52,30726,20.56,74324.3,23.01,1.79,-3.31,0,*6E
1496055972.76,30727,20.56,74322.0,22.99,2.01,-3.03,0,*62
1496055974.0,30728,20.56,74326.0,22.99,2.09,-3.11,0,*66
1496055975.21,30729,20.56,74320.5,22.97,2.05,-3.15,0,*61
1496055976.45,30730,20.56,74322.5,22.99,1.97,-3.35,0,*6D
1496055977.68,30731,20.56,74322.8,22.99,2.13,-3.23,0,*64
1496055978.91,30732,20.56,74324.3,22.99,2.13,-3.19,0,*6E
1496055980.17,30733,20.56,74324.5,22.99,1.97,-3.55,0,*68
1496055981.4,30734,20.56,74324.3,22.97,1.97,-3.63,0,*64
1496055982.61,30735,20.56,74322.5,22.97,1.67,-4.05,0,*6D
1496055983.87,30736,20.56,74322.8,22.99,2.01,-3.67,0,*60
1496055985.07,30737,20.56,74326.5,22.95,1.83,-3.87,0,*6A
1496055986.3,30738,20.56,74320.8,22.95,1.93,-3.91,0,*63
1496055987.53,30739,20.56,74326.8,22.93,0.63,-5.19,0,*5C
1496055988.74,30740,20.56,74320.0,22.93,1.71,-4.17,0,*6F
1496055989.95,30741,20.56,74326.8,22.93,0.21,-6.35,0,*58
1496055991.22,30742,20.56,74324.8,22.87,0.87,-5.27,0,*52
1496055992.46,30743,20.56,74320.3,22.87,0.87,-5.51,0,*52
1496055993.73,30744,20.56,74326.0,22.87,1.21,-4.93,0,*67
1496055994.94,30745,20.56,74324.0,22.85,1.97,-4.17,0,*65
1496055996.18,30746,20.56,74324.5,22.85,1.47,-4.73,0,*69
1496055997.39,30747,20.56,74320.3,22.83,2.39,-3.87,0,*68
1496055998.6,30748,20.56,74322.0,22.83,1.89,-4.33,0,*67
1496055999.85,30749,20.56,74322.3,22.85,1.37,-5.03,0,*67
1496056001.09,30750,20.63,74326.8,22.85,0.59,-5.85,0,*58
1496056002.29,30751,20.56,74326.0,22.83,0.25,-6.39,0,*50
1496056003.52,30752,20.56,74324.3,22.81,0.29,-6.31,0,*55
1496056004.74,30753,20.56,74322.3,22.81,0.51,-6.05,0,*5C
1496056005.97,30754,20.56,74324.5,22.79,0.87,-5.93,0,*5B
1496056007.18,30755,20.56,74326.0,22.79,0.97,-5.69,0,*5E
1496056008.41,30756,20.63,74324.8,22.79,0.91,-5.65,0,*57
1496056009.64,30757,20.56,74326.0,22.77,0.37,-6.35,0,*52
1496056010.84,30758,20.56,74322.8,22.75,0.71,-5.97,0,*56
1496056012.04,30759,20.63,74322.8,22.75,-0.03,-6.81,0,*4B
1496056013.25,30760,20.56,74324.8,22.71,-0.81,-7.73,0,*73
1496056014.44,30761,20.63,74326.8,22.71,-1.67,-8.71,0,*46
1496056015.64,30762,20.56,74320.3,22.67,-1.33,-8.21,0,*46
1496056016.84,30763,20.56,74326.3,22.63,-0.77,-7.69,0,*71
1496056018.11,30764,20.56,74324.0,22.61,-0.89,-7.73,0,*7E
1496056019.33,30765,20.63,74324.8,22.59,-0.73,-7.65,0,*76
1496056020.5,30766,20.56,74326.0,22.59,0.01,-6.89,0,*6E
1496056021.72,30767,20.56,74324.0,22.57,0.17,-6.55,0,*57
1496056022.92,30768,20.63,74326.5,22.59,0.13,-6.73,0,*56
1496056024.14,30769,20.56,74322.5,22.57,-1.21,-8.33,0,*4E
1496056025.35,30770,20.56,74324.8,22.57,-1.25,-8.29,0,*49
1496056026.57,30771,20.56,74324.5,22.53,-0.19,-7.19,0,*7E
1496056027.78,30772,20.63,74326.8,22.55,-0.61,-7.57,0,*7E
1496056028.99,30773,20.63,74324.0,22.51,-0.69,-7.73,0,*75
1496056030.2,30774,20.56,74326.5,22.51,-1.35,-8.67,0,*40
1496056031.44,30775,20.63,74324.5,22.49,-2.23,-9.49,0,*41
1496056032.67,30776,20.56,74324.5,22.43,-2.75,-10.15,0,*7A
1496056033.89,30777,20.56,74322.8,22.43,-2.11,-9.23,0,*44
1496056035.1,30778,20.63,74324.0,22.39,-1.43,-8.59,0,*4E
1496056036.32,30779,20.56,74326.8,22.37,-1.25,-8.37,0,*49
1496056037.51,30780,20.63,74326.5,22.35,-1.63,-8.89,0,*4A
1496056038.73,30781,20.63,74328.0,22.35,-1.39,-8.63,0,*40
1496056039.93,30782,20.56,74324.5,22.35,0.21,-6.89,0,*5C
1496056041.13,30783,20.63,74324.5,22.35,0.43,-6.63,0,*5D
1496056042.32,30784,20.63,74328.3,22.35,-1.29,-8.55,0,*41
1496056043.51,30785,20.63,74324.5,22.35,-1.67,-9.05,0,*4E
1496056044.75,30786,20.63,74326.0,22.31,-1.91,-9.37,0,*41
1496056045.96,30787,20.56,74320.3,22.31,-2.43,-9.83,0,*43
1496056047.19,30788,20.63,74322.8,22.27,-2.67,-10.31,0,*7C
1496056048.41,30789,20.56,74322.0,22.25,-2.79,-10.53,0,*74
1496056049.67,30790,20.63,74326.8,22.21,-2.59,-10.19,0,*74
1496056050.91,30791,20.56,74320.8,22.17,-4.01,-11.81,0,*7B
1496056052.12,30792,20.63,74326.5,22.13,-1.79,-9.37,0,*42
1496056053.35,30793,20.56,74322.0,22.11,-2.43,-10.05,0,*72
1496056054.58,30794,20.63,74324.8,22.09,-1.95,-9.57,0,*4B
1496056055.83,30795,20.63,74324.8,22.11,-1.43,-9.01,0,*4B
1496056057.03,30796,20.63,74324.0,22.09,-1.33,-8.85,0,*4B
1496056058.26,30797,20.63,74324.0,22.09,-1.99,-9.71,0,*40
1496056059.48,30798,20.63,74324.3,22.05,-2.79,-10.71,0,*76
1496056060.7,30799,20.63,74326.5,22.05,-2.67,-10.49,0,*73
1496056061.95,30800,20.56,74324.5,21.99,-1.71,-9.41,0,*4E
1496056063.19,30801,20.63,74324.8,21.99,-1.67,-9.41,0,*48
1496056064.38,30802,20.56,74322.0,21.97,-1.25,-9.05,0,*43
1496056065.58,30803,20.56,74322.5,21.97,-2.35,-10.31,0,*7F
1496056066.82,30804,20.63,74326.0,21.95,-1.55,-9.37,0,*41
1496056068.04,30805,20.56,74322.0,21.95,-0.41,-8.25,0,*76
1496056069.22,30806,20.56,74320.0,21.97,-0.73,-8.59,0,*7D
1496056070.44,30807,20.63,74326.8,21.97,-0.97,-9.01,0,*7A
1496056071.66,30808,20.56,74320.0,21.93,-2.43,-10.75,0,*71
1496056072.89,30809,20.63,74324.3,21.91,-2.19,-10.53,0,*79
1496056074.14,30810,20.56,74322.5,21.91,-2.43,-10.79,0,*76
1496056075.36,30811,20.63,74322.5,21.87,-2.27,-10.71,0,*7A
1496056076.58,30812,20.63,74322.8,21.87,-3.03,-11.55,0,*79
1496056077.83,30813,20.63,74324.3,21.87,-2.67,-11.29,0,*70
1496056079.05,30814,20.63,74324.3,21.83,-2.79,-11.29,0,*7C
1496056080.3,30815,20.63,74326.5,21.81,-2.03,-10.45,0,*79
1496056081.56,30816,20.63,74324.8,21.79,-2.07,-10.71,0,*7E
1496056082.76,30817,20.63,74324.5,21.79,-1.63,-10.15,0,*7C
1496056084.0,30818,20.63,74322.8,21.79,-1.09,-9.57,0,*41
1496056085.19,30819,20.63,74324.0,21.79,-0.45,-8.75,0,*78
1496056086.42,30820,20.63,74326.8,21.79,0.41,-7.99,0,*56
1496056087.66,30821,20.63,74326.3,21.79,0.37,-8.07,0,*5E
1496056088.89,30822,20.63,74326.8,21.79,0.51,-7.95,0,*59
1496056090.1,30823,20.63,74330.0,21.81,-0.29,-8.89,0,*7F
1496056091.34,30824,20.63,74324.8,21.81,0.63,-7.91,0,*5D
1496056092.51,30825,20.63,74326.3,21.83,0.05,-8.67,0,*68
1496056093.75,30826,20.63,74326.0,21.85,-0.69,-9.49,0,*77
1496056094.93,30827,20.63,74324.0,21.83,-0.61,-9.27,0,*70
1496056096.12,30828,20.63,74324.8,21.83,-0.11,-8.59,0,*70
1496056097.33,30829,20.63,74324.0,21.83,-0.23,-8.97,0,*72
1496056098.55,30830,20.63,74324.0,21.83,-0.73,-9.53,0,*76
1496056099.77,30831,20.63,74324.5,21.83,-1.09,-10.05,0,*70
1496056100.98,30832,20.63,74320.5,21.83,-1.29,-10.19,0,*7C
1496056102.19,30833,20.63,74326.0,21.83,-0.93,-9.71,0,*7B
1496056103.46,30834,20.63,74324.0,21.81,-1.01,-9.83,0,*49
1496056104.69,30835,20.63,74322.0,21.81,-0.33,-9.15,0,*77
1496056105.89,30836,20.63,74324.0,21.81,-0.29,-8.97,0,*74
1496056107.13,30837,20.63,74324.0,21.81,-0.33,-9.11,0,*71
1496056108.36,30838,20.63,74326.3,21.81,-1.17,-10.09,0,*78
1496056109.59,30839,20.63,74324.0,21.81,-2.19,-11.33,0,*7C
1496056110.82,30840,20.63,74322.0,21.79,-1.87,-10.85,0,*7D
1496056112.02,30841,20.63,74324.0,21.75,-0.61,-9.45,0,*7D